WAT035 MKJS-TNCM

Flight info

Callsign WAT035
Flight time 2h 0m
Altitude 37000
Route ROSTO2 ROSTO DCT SAVEM DCT KEBET DCT PAP DCT ETBOD DCT ANTEX DCT GOUDA
Aircraft A320/M-SDE3FGHIRWY/LB1

Departure

Time 2026-05-05 22:52
Airport Sangster International Airport (MKJS)

Arrival

Time 2026-05-06 00:52
Airport Princess Juliana International Airport (TNCM)
Time Latitude Longitude Altitude Speed Heading
2026-05-05 22:16 18.49952 -77.91703 41 ft 0 kts 155°
2026-05-05 22:29 18.49953 -77.91703 41 ft 0 kts 155°
2026-05-05 22:43 18.49962 -77.91708 30 ft 4 kts 155°
2026-05-05 22:43 18.49987 -77.91720 29 ft 4 kts 155°
2026-05-05 22:43 18.50008 -77.91730 30 ft 4 kts 174°
2026-05-05 22:43 18.50026 -77.91723 31 ft 4 kts 249°
2026-05-05 22:44 18.50033 -77.91696 37 ft 4 kts 254°
2026-05-05 22:44 18.50035 -77.91689 36 ft 2 kts 250°
2026-05-05 22:47 18.50033 -77.91693 35 ft 4 kts 250°
2026-05-05 22:47 18.50007 -77.91760 35 ft 12 kts 245°
2026-05-05 22:47 18.49970 -77.91842 38 ft 13 kts 244°
2026-05-05 22:47 18.49931 -77.91934 37 ft 14 kts 246°
2026-05-05 22:48 18.49887 -77.92033 34 ft 16 kts 244°
2026-05-05 22:48 18.49837 -77.92141 34 ft 17 kts 245°
2026-05-05 22:48 18.49786 -77.92259 36 ft 18 kts 245°
2026-05-05 22:48 18.49748 -77.92383 37 ft 16 kts 288°
2026-05-05 22:49 18.49812 -77.92426 38 ft 0 kts 334°
2026-05-05 22:49 18.49813 -77.92427 38 ft 1 kts 334°
2026-05-05 22:50 18.49874 -77.92439 31 ft 15 kts 14°
2026-05-05 22:50 18.49914 -77.92381 32 ft 0 kts 66°
2026-05-05 22:50 18.49913 -77.92381 32 ft 0 kts 66°
2026-05-05 22:51 18.49914 -77.92381 32 ft 0 kts 66°
2026-05-05 22:51 18.50000 -77.92173 34 ft 69 kts 64°
2026-05-05 22:51 18.50285 -77.91523 38 ft 122 kts 65°
2026-05-05 22:51 18.50709 -77.90561 109 ft 154 kts 66°
2026-05-05 22:52 18.51125 -77.89650 798 ft 137 kts 69°
2026-05-05 22:52 18.51572 -77.88676 1151 ft 146 kts 54°
2026-05-05 22:52 18.52426 -77.87968 1351 ft 163 kts 27°
2026-05-05 22:52 18.53504 -77.87508 1652 ft 171 kts 22°
2026-05-05 22:53 18.54668 -77.87031 1797 ft 187 kts 22°
2026-05-05 22:53 18.55930 -77.86506 1922 ft 204 kts 22°
2026-05-05 22:53 18.57248 -77.85796 2047 ft 225 kts 43°
2026-05-05 22:53 18.58068 -77.84336 2305 ft 246 kts 80°
2026-05-05 22:54 18.57985 -77.82483 2776 ft 261 kts 99°
2026-05-05 22:54 18.57656 -77.80567 3560 ft 265 kts 101°
2026-05-05 22:54 18.57302 -77.78648 4399 ft 266 kts 102°
2026-05-05 22:54 18.56943 -77.76720 5209 ft 268 kts 102°
2026-05-05 22:55 18.56580 -77.74750 5978 ft 273 kts 102°
2026-05-05 22:55 18.56217 -77.72748 6739 ft 276 kts 102°
2026-05-05 22:55 18.55861 -77.70749 7440 ft 279 kts 101°
2026-05-05 22:55 18.55507 -77.68742 8094 ft 284 kts 101°
2026-05-05 22:56 18.55141 -77.66655 8754 ft 288 kts 100°
2026-05-05 22:56 18.54780 -77.64581 9391 ft 293 kts 99°
2026-05-05 22:56 18.54409 -77.62451 10012 ft 297 kts 99°
2026-05-05 22:56 18.54024 -77.60239 10328 ft 313 kts 100°
2026-05-05 22:57 18.53605 -77.57858 10454 ft 333 kts 101°
2026-05-05 22:57 18.53180 -77.55459 10786 ft 343 kts 101°
2026-05-05 22:57 18.52737 -77.52956 11267 ft 348 kts 101°
2026-05-05 22:57 18.52295 -77.50454 11759 ft 353 kts 101°
2026-05-05 22:58 18.51844 -77.47887 12273 ft 357 kts 101°
2026-05-05 22:58 18.51387 -77.45299 12785 ft 361 kts 102°
2026-05-05 22:58 18.50920 -77.42660 13280 ft 366 kts 102°
2026-05-05 22:58 18.50448 -77.40015 13785 ft 370 kts 102°
2026-05-05 22:59 18.49974 -77.37349 14247 ft 373 kts 101°
2026-05-05 22:59 18.49499 -77.34671 14713 ft 376 kts 102°
2026-05-05 22:59 18.49015 -77.31940 15148 ft 380 kts 101°
2026-05-05 22:59 18.48526 -77.29199 15643 ft 382 kts 101°
2026-05-05 23:00 18.47703 -77.24572 16460 ft 386 kts 101°
2026-05-05 23:00 18.47042 -77.20869 17051 ft 390 kts 101°
2026-05-05 23:00 18.46540 -77.18050 17542 ft 392 kts 101°
2026-05-05 23:01 18.46199 -77.16139 17914 ft 393 kts 101°
2026-05-05 23:01 18.45690 -77.13303 18361 ft 396 kts 101°
2026-05-05 23:01 18.45175 -77.10435 18757 ft 399 kts 100°
2026-05-05 23:01 18.44661 -77.07551 19188 ft 401 kts 100°
2026-05-05 23:02 18.44152 -77.04695 19596 ft 405 kts 99°
2026-05-05 23:02 18.43695 -77.01677 19978 ft 408 kts 93°
2026-05-05 23:02 18.43483 -76.98658 20430 ft 410 kts 94°
2026-05-05 23:02 18.43267 -76.95681 20889 ft 412 kts 94°
2026-05-05 23:03 18.43040 -76.92626 21293 ft 415 kts 93°
2026-05-05 23:03 18.42811 -76.89577 21742 ft 417 kts 93°
2026-05-05 23:03 18.42582 -76.86527 22170 ft 420 kts 93°
2026-05-05 23:03 18.42351 -76.83452 22589 ft 423 kts 92°
2026-05-05 23:04 18.42120 -76.80359 23018 ft 425 kts 93°
2026-05-05 23:04 18.41889 -76.77246 23436 ft 427 kts 92°
2026-05-05 23:04 18.41661 -76.74127 23783 ft 429 kts 92°
2026-05-05 23:04 18.41428 -76.70983 24125 ft 431 kts 92°
2026-05-05 23:05 18.41193 -76.67820 24466 ft 433 kts 92°
2026-05-05 23:05 18.40957 -76.64652 24800 ft 435 kts 92°
2026-05-05 23:05 18.40718 -76.61473 25124 ft 437 kts 92°
2026-05-05 23:05 18.40475 -76.58274 25445 ft 439 kts 92°
2026-05-05 23:06 18.40231 -76.55069 25663 ft 439 kts 92°
2026-05-05 23:06 18.39985 -76.51850 25951 ft 442 kts 92°
2026-05-05 23:06 18.39734 -76.48577 26269 ft 444 kts 92°
2026-05-05 23:06 18.39484 -76.45330 26571 ft 445 kts 92°
2026-05-05 23:07 18.39236 -76.42079 26862 ft 447 kts 91°
2026-05-05 23:07 18.38986 -76.38806 27155 ft 449 kts 91°
2026-05-05 23:07 18.38738 -76.35519 27452 ft 451 kts 91°
2026-05-05 23:07 18.38487 -76.32224 27732 ft 453 kts 91°
2026-05-05 23:08 18.38233 -76.28908 28017 ft 454 kts 91°
2026-05-05 23:08 18.37978 -76.25592 28308 ft 456 kts 91°
2026-05-05 23:08 18.37723 -76.22256 28599 ft 458 kts 91°
2026-05-05 23:08 18.37465 -76.18904 28894 ft 460 kts 91°
2026-05-05 23:09 18.37205 -76.15544 29183 ft 462 kts 91°
2026-05-05 23:09 18.36942 -76.12160 29475 ft 463 kts 90°
2026-05-05 23:09 18.36675 -76.08778 29796 ft 464 kts 90°
2026-05-05 23:09 18.36401 -76.05331 30216 ft 463 kts 90°
2026-05-05 23:10 18.36134 -76.01984 30560 ft 462 kts 90°
2026-05-05 23:10 18.35865 -75.98574 30904 ft 461 kts 90°
2026-05-05 23:10 18.35602 -75.95210 31241 ft 460 kts 91°
2026-05-05 23:10 18.35340 -75.91852 31588 ft 460 kts 91°
2026-05-05 23:11 18.35076 -75.88498 31920 ft 460 kts 91°
2026-05-05 23:11 18.34809 -75.85142 32271 ft 459 kts 91°
2026-05-05 23:11 18.34542 -75.81792 32622 ft 459 kts 91°
2026-05-05 23:11 18.34276 -75.78449 32975 ft 458 kts 91°
2026-05-05 23:12 18.34010 -75.75058 33344 ft 458 kts 91°
2026-05-05 23:12 18.33746 -75.71723 33704 ft 457 kts 91°
2026-05-05 23:12 18.33482 -75.68432 34048 ft 456 kts 91°
2026-05-05 23:12 18.33207 -75.65064 34329 ft 456 kts 91°
2026-05-05 23:13 18.32937 -75.61737 34589 ft 456 kts 91°
2026-05-05 23:13 18.32671 -75.58401 34832 ft 457 kts 91°
2026-05-05 23:13 18.32404 -75.55064 34985 ft 458 kts 91°
2026-05-05 23:13 18.32136 -75.51712 35026 ft 462 kts 91°
2026-05-05 23:14 18.31587 -75.44960 35027 ft 464 kts 91°
2026-05-05 23:14 18.31031 -75.38196 35026 ft 464 kts 91°
2026-05-05 23:15 18.30469 -75.31417 35027 ft 465 kts 91°
2026-05-05 23:15 18.29911 -75.24636 35027 ft 465 kts 91°
2026-05-05 23:16 18.29347 -75.17850 35034 ft 465 kts 91°
2026-05-05 23:16 18.28779 -75.11016 35040 ft 466 kts 91°
2026-05-05 23:17 18.28212 -75.04214 35038 ft 466 kts 91°
2026-05-05 23:17 18.27642 -74.97374 35040 ft 467 kts 91°
2026-05-05 23:18 18.27075 -74.90565 35041 ft 467 kts 91°
2026-05-05 23:18 18.26504 -74.83757 35043 ft 467 kts 91°
2026-05-05 23:19 18.25921 -74.76946 35043 ft 467 kts 92°
2026-05-05 23:19 18.25331 -74.70100 35043 ft 467 kts 92°
2026-05-05 23:20 18.25406 -74.63330 35043 ft 459 kts 77°
2026-05-05 23:20 18.26382 -74.56698 35040 ft 459 kts 77°
2026-05-05 23:21 18.27345 -74.50056 35039 ft 459 kts 77°
2026-05-05 23:21 18.28140 -74.44484 35044 ft 459 kts 78°
2026-05-05 23:22 18.29082 -74.37836 35042 ft 459 kts 77°
2026-05-05 23:22 18.30032 -74.31191 35043 ft 460 kts 78°
2026-05-05 23:23 18.30998 -74.24490 35040 ft 460 kts 78°
2026-05-05 23:23 18.31951 -74.17818 35054 ft 461 kts 78°
2026-05-05 23:24 18.32908 -74.11109 35055 ft 461 kts 78°
2026-05-05 23:24 18.33854 -74.04428 35063 ft 461 kts 78°
2026-05-05 23:25 18.34788 -73.97753 35053 ft 461 kts 78°
2026-05-05 23:25 18.35722 -73.91101 35050 ft 463 kts 78°
2026-05-05 23:26 18.36678 -73.84347 35052 ft 463 kts 78°
2026-05-05 23:26 18.37620 -73.77643 35047 ft 464 kts 78°
2026-05-05 23:27 18.38554 -73.70921 35050 ft 464 kts 78°
2026-05-05 23:27 18.39491 -73.64192 35051 ft 464 kts 79°
2026-05-05 23:28 18.40433 -73.57465 35057 ft 465 kts 78°
2026-05-05 23:28 18.41366 -73.50758 35054 ft 465 kts 78°
2026-05-05 23:29 18.42306 -73.43982 35054 ft 465 kts 78°
2026-05-05 23:29 18.43241 -73.37228 35056 ft 465 kts 78°
2026-05-05 23:30 18.44161 -73.30493 35053 ft 465 kts 78°
2026-05-05 23:30 18.45089 -73.23733 35046 ft 466 kts 79°
2026-05-05 23:31 18.46016 -73.17014 35043 ft 467 kts 79°
2026-05-05 23:31 18.46955 -73.10193 35045 ft 467 kts 79°
2026-05-05 23:32 18.47872 -73.03452 35040 ft 468 kts 79°
2026-05-05 23:32 18.48794 -72.96621 35042 ft 468 kts 79°
2026-05-05 23:33 18.49710 -72.89859 35028 ft 469 kts 79°
2026-05-05 23:33 18.50634 -72.83009 35029 ft 470 kts 79°
2026-05-05 23:34 18.51541 -72.76234 35017 ft 470 kts 79°
2026-05-05 23:34 18.52465 -72.69383 35016 ft 470 kts 79°
2026-05-05 23:35 18.53390 -72.62560 35008 ft 470 kts 79°
2026-05-05 23:35 18.54302 -72.55734 35009 ft 470 kts 80°
2026-05-05 23:36 18.55203 -72.48904 34995 ft 471 kts 80°
2026-05-05 23:36 18.56116 -72.42056 34997 ft 471 kts 80°
2026-05-05 23:37 18.57025 -72.35212 35005 ft 472 kts 80°
2026-05-05 23:37 18.57342 -72.28294 35002 ft 475 kts 95°
2026-05-05 23:38 18.56379 -72.21400 35008 ft 476 kts 98°
2026-05-05 23:38 18.55397 -72.14501 35008 ft 476 kts 98°
2026-05-05 23:39 18.54420 -72.07586 35027 ft 476 kts 98°
2026-05-05 23:39 18.53439 -72.00683 35029 ft 476 kts 98°
2026-05-05 23:40 18.52442 -71.93781 35039 ft 476 kts 98°
2026-05-05 23:40 18.51661 -71.86850 35034 ft 475 kts 89°
2026-05-05 23:41 18.51678 -71.79893 35049 ft 475 kts 89°
2026-05-05 23:41 18.51680 -71.72930 35048 ft 475 kts 89°
2026-05-05 23:42 18.51672 -71.65966 35060 ft 475 kts 89°
2026-05-05 23:42 18.51663 -71.59001 35062 ft 476 kts 89°
2026-05-05 23:43 18.51654 -71.52035 35076 ft 476 kts 89°
2026-05-05 23:43 18.51645 -71.45007 35076 ft 476 kts 89°
2026-05-05 23:44 18.51637 -71.38029 35088 ft 476 kts 89°
2026-05-05 23:44 18.51615 -71.31051 35078 ft 477 kts 89°
2026-05-05 23:45 18.51596 -71.24083 35074 ft 477 kts 89°
2026-05-05 23:45 18.51576 -71.17027 35079 ft 477 kts 89°
2026-05-05 23:46 18.51552 -71.10023 35095 ft 478 kts 89°
2026-05-05 23:46 18.51525 -71.03025 35093 ft 478 kts 89°
2026-05-05 23:47 18.51498 -70.97154 35109 ft 478 kts 89°
2026-05-05 23:47 18.51466 -70.90143 35106 ft 478 kts 89°
2026-05-05 23:48 18.51435 -70.83093 35103 ft 477 kts 89°
2026-05-05 23:48 18.51397 -70.76098 35127 ft 477 kts 89°
2026-05-05 23:49 18.51359 -70.69062 35128 ft 477 kts 89°
2026-05-05 23:49 18.51320 -70.62067 35126 ft 477 kts 90°
2026-05-05 23:50 18.51275 -70.55083 35125 ft 477 kts 90°
2026-05-05 23:50 18.51228 -70.48101 35122 ft 477 kts 90°
2026-05-05 23:51 18.51181 -70.41111 35120 ft 476 kts 90°
2026-05-05 23:51 18.51131 -70.34091 35118 ft 476 kts 90°
2026-05-05 23:52 18.51072 -70.27006 35104 ft 476 kts 90°
2026-05-05 23:52 18.51016 -70.19989 35094 ft 476 kts 90°
2026-05-05 23:53 18.50955 -70.12966 35094 ft 476 kts 90°
2026-05-05 23:53 18.50897 -70.05995 35095 ft 476 kts 90°
2026-05-05 23:54 18.50838 -69.99021 35092 ft 475 kts 90°
2026-05-05 23:54 18.50770 -69.91998 35097 ft 475 kts 90°
2026-05-05 23:55 18.50702 -69.85037 35094 ft 475 kts 90°
2026-05-05 23:55 18.50626 -69.78060 35087 ft 475 kts 90°
2026-05-05 23:56 18.50551 -69.71096 35090 ft 474 kts 90°
2026-05-05 23:56 18.50474 -69.64118 35072 ft 473 kts 90°
2026-05-05 23:57 18.50388 -69.57137 35066 ft 474 kts 90°
2026-05-05 23:57 18.50303 -69.50197 35067 ft 474 kts 91°
2026-05-05 23:58 18.50220 -69.43248 35067 ft 475 kts 91°
2026-05-05 23:58 18.50139 -69.36248 35066 ft 475 kts 91°
2026-05-05 23:59 18.50049 -69.29286 35068 ft 475 kts 91°
2026-05-05 23:59 18.49956 -69.22323 35072 ft 475 kts 91°
2026-05-06 00:00 18.49864 -69.15358 35075 ft 475 kts 91°
2026-05-06 00:00 18.49770 -69.08392 35073 ft 476 kts 91°
2026-05-06 00:01 18.49671 -69.01412 35078 ft 476 kts 91°
2026-05-06 00:01 18.49561 -68.94391 35110 ft 476 kts 91°
2026-05-06 00:02 18.49457 -68.87414 35112 ft 476 kts 91°
2026-05-06 00:02 18.49373 -68.81615 35106 ft 476 kts 92°
2026-05-06 00:03 18.49262 -68.74631 35098 ft 477 kts 92°
2026-05-06 00:03 18.49151 -68.67647 35093 ft 477 kts 92°
2026-05-06 00:04 18.49033 -68.60659 35092 ft 477 kts 92°
2026-05-06 00:04 18.48913 -68.53657 35085 ft 478 kts 92°
2026-05-06 00:05 18.48731 -68.43160 35079 ft 478 kts 92°
2026-05-06 00:06 18.48610 -68.36155 35084 ft 478 kts 92°
2026-05-06 00:06 18.48477 -68.29101 35086 ft 479 kts 92°
2026-05-06 00:07 18.48345 -68.22083 35088 ft 479 kts 92°
2026-05-06 00:07 18.48220 -68.15064 35095 ft 479 kts 92°
2026-05-06 00:08 18.48088 -68.08052 35094 ft 479 kts 92°
2026-05-06 00:08 18.47947 -68.01034 35093 ft 479 kts 94°
2026-05-06 00:09 18.47251 -67.94077 35093 ft 477 kts 98°
2026-05-06 00:09 18.46452 -67.87135 35101 ft 478 kts 98°
2026-05-06 00:10 18.45651 -67.80191 35088 ft 478 kts 98°
2026-05-06 00:10 18.44851 -67.73244 35089 ft 477 kts 98°
2026-05-06 00:11 18.44046 -67.66261 35092 ft 477 kts 99°
2026-05-06 00:11 18.43232 -67.59265 35092 ft 477 kts 99°
2026-05-06 00:12 18.42421 -67.52326 35095 ft 477 kts 99°
2026-05-06 00:12 18.41604 -67.45391 35092 ft 477 kts 99°
2026-05-06 00:13 18.40791 -67.38445 35096 ft 477 kts 99°
2026-05-06 00:13 18.39980 -67.31504 35102 ft 477 kts 99°
2026-05-06 00:14 18.39158 -67.24563 35103 ft 477 kts 99°
2026-05-06 00:14 18.38338 -67.17626 35103 ft 477 kts 99°
2026-05-06 00:15 18.37513 -67.10692 35113 ft 477 kts 99°
2026-05-06 00:15 18.36684 -67.03747 35104 ft 477 kts 99°
2026-05-06 00:16 18.35844 -66.96769 35097 ft 477 kts 99°
2026-05-06 00:16 18.35015 -66.89839 35102 ft 477 kts 99°
2026-05-06 00:17 18.34185 -66.82908 35107 ft 477 kts 99°
2026-05-06 00:17 18.33348 -66.75978 35119 ft 477 kts 99°
2026-05-06 00:18 18.32506 -66.69049 35114 ft 477 kts 99°
2026-05-06 00:18 18.31654 -66.62084 35123 ft 476 kts 99°
2026-05-06 00:19 18.30818 -66.55170 35120 ft 476 kts 99°
2026-05-06 00:19 18.29986 -66.48254 35122 ft 476 kts 99°
2026-05-06 00:20 18.29139 -66.41345 35117 ft 476 kts 99°
2026-05-06 00:20 18.28292 -66.34441 35115 ft 476 kts 99°
2026-05-06 00:21 18.27429 -66.27477 35120 ft 475 kts 100°
2026-05-06 00:21 18.26571 -66.20590 35117 ft 475 kts 99°
2026-05-06 00:22 18.25723 -66.13745 35120 ft 475 kts 100°
2026-05-06 00:22 18.24866 -66.06849 35117 ft 475 kts 100°
2026-05-06 00:23 18.23999 -65.99916 35117 ft 474 kts 100°
2026-05-06 00:23 18.23143 -65.93031 35107 ft 474 kts 100°
2026-05-06 00:24 18.22276 -65.86107 35112 ft 473 kts 100°
2026-05-06 00:24 18.21408 -65.79245 35113 ft 473 kts 100°
2026-05-06 00:25 18.20676 -65.73504 35117 ft 473 kts 100°
2026-05-06 00:25 18.19670 -65.65532 35115 ft 472 kts 100°
2026-05-06 00:26 18.18940 -65.59745 35108 ft 472 kts 100°
2026-05-06 00:26 18.18073 -65.52907 35113 ft 472 kts 100°
2026-05-06 00:27 18.17197 -65.46067 35110 ft 471 kts 100°
2026-05-06 00:27 18.16311 -65.39185 35111 ft 471 kts 100°
2026-05-06 00:28 18.15441 -65.32352 35111 ft 471 kts 100°
2026-05-06 00:28 18.14569 -65.25518 34988 ft 470 kts 100°
2026-05-06 00:28 18.14128 -65.22103 34333 ft 473 kts 100°
2026-05-06 00:29 18.13685 -65.18683 33792 ft 470 kts 100°
2026-05-06 00:29 18.13242 -65.15286 33277 ft 467 kts 100°
2026-05-06 00:29 18.12798 -65.11914 32764 ft 464 kts 99°
2026-05-06 00:29 18.12357 -65.08562 32256 ft 462 kts 99°
2026-05-06 00:30 18.11923 -65.05231 31753 ft 459 kts 99°
2026-05-06 00:30 18.11493 -65.01919 31259 ft 456 kts 99°
2026-05-06 00:30 18.11067 -64.98625 30766 ft 453 kts 99°
2026-05-06 00:30 18.10643 -64.95353 30286 ft 450 kts 99°
2026-05-06 00:31 18.10220 -64.92092 29751 ft 447 kts 99°
2026-05-06 00:31 18.09802 -64.88876 29313 ft 442 kts 99°
2026-05-06 00:31 18.09383 -64.85690 28861 ft 438 kts 99°
2026-05-06 00:31 18.08966 -64.82539 28419 ft 433 kts 99°
2026-05-06 00:32 18.08555 -64.79415 27984 ft 429 kts 98°
2026-05-06 00:32 18.08149 -64.76316 27551 ft 426 kts 98°
2026-05-06 00:32 18.07744 -64.73227 27110 ft 424 kts 98°
2026-05-06 00:32 18.07341 -64.70168 26676 ft 422 kts 98°
2026-05-06 00:33 18.06936 -64.67120 26230 ft 420 kts 98°
2026-05-06 00:33 18.06531 -64.64082 25795 ft 419 kts 98°
2026-05-06 00:33 18.06128 -64.61047 25324 ft 419 kts 98°
2026-05-06 00:33 18.05729 -64.58015 24904 ft 418 kts 98°
2026-05-06 00:34 18.05333 -64.55009 24504 ft 416 kts 98°
2026-05-06 00:34 18.04938 -64.52012 24215 ft 411 kts 97°
2026-05-06 00:34 18.04545 -64.49038 23815 ft 410 kts 97°
2026-05-06 00:34 18.04152 -64.46081 23398 ft 408 kts 97°
2026-05-06 00:35 18.03760 -64.43159 22692 ft 401 kts 97°
2026-05-06 00:35 18.03373 -64.40266 22042 ft 400 kts 97°
2026-05-06 00:35 18.02985 -64.37377 21641 ft 396 kts 97°
2026-05-06 00:35 18.02603 -64.34526 21268 ft 391 kts 97°
2026-05-06 00:36 18.02227 -64.31715 20614 ft 387 kts 97°
2026-05-06 00:36 18.01852 -64.28920 20143 ft 386 kts 97°
2026-05-06 00:36 18.01475 -64.26129 19736 ft 383 kts 97°
2026-05-06 00:36 18.01101 -64.23370 19255 ft 382 kts 97°
2026-05-06 00:37 18.00731 -64.20614 18813 ft 381 kts 96°
2026-05-06 00:37 18.00365 -64.17886 18438 ft 377 kts 97°
2026-05-06 00:37 18.00001 -64.15173 18074 ft 372 kts 96°
2026-05-06 00:37 17.99640 -64.12504 17413 ft 366 kts 96°
2026-05-06 00:38 17.99284 -64.09863 16976 ft 364 kts 97°
2026-05-06 00:38 17.98930 -64.07239 16543 ft 361 kts 97°
2026-05-06 00:38 17.98574 -64.04604 16108 ft 359 kts 97°
2026-05-06 00:38 17.98223 -64.02014 15682 ft 357 kts 97°
2026-05-06 00:39 17.97885 -63.99518 15278 ft 355 kts 98°
2026-05-06 00:39 17.97525 -63.96860 14891 ft 351 kts 98°
2026-05-06 00:39 17.97188 -63.94359 14439 ft 349 kts 98°
2026-05-06 00:39 17.96849 -63.91843 14099 ft 345 kts 98°
2026-05-06 00:40 17.96510 -63.89354 13689 ft 342 kts 98°
2026-05-06 00:40 17.96174 -63.86884 13166 ft 338 kts 98°
2026-05-06 00:40 17.95839 -63.84433 12743 ft 333 kts 98°
2026-05-06 00:40 17.95514 -63.82062 12351 ft 331 kts 98°
2026-05-06 00:41 17.95189 -63.79677 11955 ft 329 kts 98°
2026-05-06 00:41 17.94864 -63.77306 11558 ft 327 kts 98°
2026-05-06 00:41 17.94540 -63.74949 11164 ft 325 kts 98°
2026-05-06 00:41 17.94221 -63.72613 10794 ft 323 kts 98°
2026-05-06 00:42 17.93903 -63.70282 10445 ft 320 kts 98°
2026-05-06 00:42 17.93599 -63.68019 10292 ft 304 kts 95°
2026-05-06 00:42 17.93607 -63.65837 9807 ft 295 kts 81°
2026-05-06 00:42 17.94026 -63.63754 9272 ft 288 kts 77°
2026-05-06 00:43 17.94478 -63.61712 8923 ft 286 kts 77°
2026-05-06 00:43 17.94922 -63.59683 8568 ft 285 kts 77°
2026-05-06 00:43 17.95358 -63.57662 8234 ft 283 kts 77°
2026-05-06 00:43 17.95797 -63.55624 7926 ft 281 kts 78°
2026-05-06 00:44 17.96227 -63.53630 7600 ft 280 kts 78°
2026-05-06 00:44 17.96662 -63.51612 7217 ft 278 kts 78°
2026-05-06 00:44 17.97084 -63.49661 6866 ft 270 kts 78°
2026-05-06 00:44 17.97492 -63.47771 6543 ft 262 kts 78°
2026-05-06 00:45 17.97895 -63.45904 6208 ft 262 kts 78°
2026-05-06 00:45 17.98294 -63.44048 5871 ft 255 kts 79°
2026-05-06 00:45 17.98677 -63.42269 5507 ft 246 kts 78°
2026-05-06 00:45 17.99050 -63.40543 5178 ft 237 kts 78°
2026-05-06 00:46 17.99420 -63.38836 4861 ft 224 kts 80°
2026-05-06 00:46 17.99748 -63.37330 4555 ft 208 kts 79°
2026-05-06 00:46 17.99973 -63.36215 4372 ft 199 kts 81°
2026-05-06 00:46 18.00360 -63.34871 4494 ft 163 kts 63°
2026-05-06 00:47 18.00983 -63.34065 4728 ft 132 kts 46°
2026-05-06 00:47 18.01691 -63.33339 4275 ft 151 kts 60°
2026-05-06 00:47 18.02023 -63.32338 3975 ft 143 kts 97°
2026-05-06 00:47 18.01849 -63.31295 3760 ft 151 kts 105°
2026-05-06 00:48 18.01562 -63.30225 3412 ft 155 kts 105°
2026-05-06 00:48 18.01415 -63.29111 3237 ft 143 kts 90°
2026-05-06 00:48 18.01567 -63.28080 3078 ft 146 kts 83°
2026-05-06 00:48 18.01759 -63.27013 2840 ft 153 kts 83°
2026-05-06 00:49 18.01919 -63.25876 2582 ft 159 kts 85°
2026-05-06 00:49 18.02063 -63.24751 2435 ft 144 kts 84°
2026-05-06 00:49 18.02219 -63.23742 2177 ft 143 kts 83°
2026-05-06 00:49 18.02361 -63.22725 2047 ft 142 kts 84°
2026-05-06 00:50 18.02522 -63.21695 1856 ft 142 kts 85°
2026-05-06 00:50 18.02647 -63.20680 1734 ft 143 kts 85°
2026-05-06 00:50 18.02792 -63.19611 1587 ft 148 kts 82°
2026-05-06 00:50 18.03001 -63.18565 1352 ft 145 kts 80°
2026-05-06 00:51 18.03195 -63.17506 1106 ft 149 kts 82°
2026-05-06 00:51 18.03318 -63.16429 864 ft 143 kts 86°
2026-05-06 00:51 18.03434 -63.15385 716 ft 148 kts 84°
2026-05-06 00:51 18.03598 -63.14341 542 ft 141 kts 82°
2026-05-06 00:52 18.03736 -63.13350 361 ft 137 kts 83°
2026-05-06 00:52 18.03894 -63.12311 159 ft 136 kts 84°
2026-05-06 00:52 18.04026 -63.11359 31 ft 122 kts 83°
2026-05-06 00:52 18.04119 -63.10705 27 ft 49 kts 80°
2026-05-06 00:53 18.04165 -63.10357 28 ft 54 kts 81°
2026-05-06 00:53 18.04221 -63.09994 27 ft 37 kts 81°
2026-05-06 00:53 18.04274 -63.09905 27 ft 6 kts 19°
2026-05-06 00:53 18.04292 -63.09852 27 ft 14 kts 107°
2026-05-06 00:54 18.04240 -63.09874 27 ft 11 kts 250°
2026-05-06 00:54 18.04217 -63.10019 27 ft 33 kts 262°
2026-05-06 00:54 18.04182 -63.10272 27 ft 36 kts 261°
2026-05-06 00:54 18.04144 -63.10537 28 ft 37 kts 261°
2026-05-06 00:55 18.04112 -63.10761 27 ft 26 kts 261°
2026-05-06 00:55 18.04085 -63.10947 28 ft 21 kts 264°
2026-05-06 00:55 18.04118 -63.10993 28 ft 6 kts 337°
2026-05-06 00:55 18.04161 -63.11016 28 ft 8 kts 314°
2026-05-06 00:56 18.04165 -63.11056 28 ft 0 kts 262°
2026-05-06 00:57 18.04164 -63.11060 28 ft 4 kts 262°
2026-05-06 00:57 18.04156 -63.11123 28 ft 10 kts 262°
2026-05-06 00:57 18.04153 -63.11149 28 ft 2 kts 262°
2026-05-06 00:58 18.04144 -63.11220 28 ft 17 kts 261°
2026-05-06 00:58 18.04168 -63.11301 28 ft 11 kts 14°
2026-05-06 00:58 18.04215 -63.11313 29 ft 8 kts 330°
2026-05-06 00:58 18.04258 -63.11353 29 ft 9 kts 338°
2026-05-06 00:59 18.04308 -63.11361 29 ft 7 kts 349°
2026-05-06 00:59 18.04330 -63.11365 29 ft 1 kts 350°
2026-05-06 00:59 18.04332 -63.11365 29 ft 0 kts 350°
2026-05-06 00:59 18.04335 -63.11366 29 ft 0 kts 352°